Location: Unspecified
(0.0000°N, 0.0000°E)
Time: 05:33:48
(UTC-05:00)

Daily predictions for brighter satellites

Satellite Brightness Start Highest point End
(mag) Time Altitude Azimuth Time Altitude Azimuth Time Altitude Azimuth
Cosmos 1125 Rocket 4.5 00:01:44 10° NW 00:05:47 23° WSW 00:09:52 10° SSW
SEDSat Delta rocket 3.5 00:01:52 14° WNW 00:06:21 69° SSW 00:12:17 10° SE
BREEZE-M DEB (TANK) 3.5 00:05:07 14° SSW 00:07:48 43° SE 00:10:01 10° ENE
Meteor 1-11 4.2 00:02:42 10° N 00:08:20 72° W 00:14:04 10° S
Cosmos 292 Rocket 3.8 00:07:24 10° SSW 00:12:09 62° WNW 00:16:51 10° N
S3M 3.9 00:09:47 10° S 00:15:55 74° W 00:22:00 10° N
Ariane H10 3.0 00:15:37 22° SW 00:16:36 35° S 00:18:43 10° ESE
Cosmos 2058 3.5 00:12:59 10° NNW 00:16:50 36° W 00:20:41 10° SSW
Cosmos 1151 Rocket 2.9 00:13:24 10° S 00:17:41 83° W 00:21:57 10° N
Cosmos 1437 Rocket 4.0 00:17:06 17° WSW 00:18:24 20° W 00:21:15 10° NW
CZ-4 R/B 2.4 00:21:11 10° NNE 00:25:08 50° ESE 00:29:01 10° S
Cosmos 2333 Rocket 2.2 00:20:05 10° SSW 00:25:41 68° WNW 00:31:19 10° N
Cosmos 2219 Rocket 2.6 00:23:58 10° SW 00:29:12 41° WNW 00:34:25 10° N
IRS-1A Rocket 4.4 00:23:27 10° N 00:29:14 70° WNW 00:35:07 10° SSW
RESURS DK-1 2.9 00:25:33 10° NW 00:29:19 35° WSW 00:33:07 10° S
Cosmos 1805 Rocket 4.5 00:28:19 10° NW 00:32:01 27° W 00:35:45 10° SSW
Cosmos 1703 3.3 00:32:24 10° NNW 00:36:18 61° W 00:40:13 10° S
COSMOS 2428 4.5 00:36:56 10° W 00:39:14 13° WNW 00:41:33 10° NW
Centaur D-1AR AC-36 4.1 00:21:16 10° W 00:39:28 35° NW 00:44:01 10° NNE
Ariane 42P Rocket 3.7 00:36:38 10° WSW 00:40:03 61° S 00:54:30 10° E
Cosmos 1461 3.0 00:37:52 10° NW 00:41:33 42° WSW 00:45:15 10° S
ARIANE 5 DEB (SYLDA) 3.5 00:38:46 10° W 00:42:16 72° N 00:48:23 10° E
Cosmos 921 Rocket 3.8 00:38:07 10° N 00:42:31 60° E 00:46:53 10° SSE
Sakura Rocket 3.2 00:40:26 10° WSW 00:44:31 87° SSE 00:49:55 10° ENE
NOSS 0 Rocket 4.5 00:41:08 10° SW 00:46:48 39° WNW 00:52:27 10° N
CZ-3A R/B 4.0 00:19:31 10° WSW 00:51:20 52° S 00:56:10 10° E
